Location: Edemissen
(51.7689°N, 9.8634°E)
Time: 23:36:35
(UTC+00:00)

ISS - Visible Passes

Search period start: 20 June 2025 00:00
Search period end: 30 June 2025 00:00
Orbit: 415 x 417 km, 51.6° (Epoch: 20 June)

Date Brightness Start Highest point End Pass type
(mag) Time Alt. Az. Time Alt. Az. Time Alt. Az.
25 Jun -1.8 01:45:28 10° S 01:47:45 17° SE 01:50:03 10° E visible
26 Jun -1.4 00:58:32 11° SSE 00:59:26 12° SE 01:00:43 10° ESE visible
27 Jun -2.7 01:44:28 13° SSW 01:47:04 32° SSE 01:50:07 10° E visible
28 Jun -2.3 00:57:29 19° S 00:58:39 23° SSE 01:01:23 10° E visible
29 Jun -1.8 00:10:27 16° SE 00:10:27 16° SE 00:12:27 10° E visible
29 Jun -3.6 01:43:19 11° WSW 01:46:30 55° SSE 01:49:49 10° E visible
